Погода в Душанбе

Таджикистан     38°34′28″N   68°46′48″E
темп.,
°C
ветер,
м/с
пор.,
м/с
влажн.,
%
обл.,
%
осадки,
мм/ч
давл.,
гПа
погр.,
м
12 августа, пт
пт1223:00+23св11250 0.0 100812
02:00+21в11280 0.0 100711
05:00+20всв11310 0.0 100811
08:00+26юв00220 0.0 1008242
11:00+33з21140 0.0 10061711
14:00+36з43110 0.0 10022737
17:00+35з54100 0.0 10012247
20:00+27зсз22180 0.0 100312
13 августа, сб
сб1323:00+24всв11230 0.0 100511
02:00+23всв11260 0.0 100611
05:00+21всв11280 0.0 100611
08:00+27в11200 0.0 1007262
11:00+34юз21130 0.0 10051919
14:00+37з32100 0.0 10023326
17:00+37з4390 0.0 10003046
20:00+29зюз22170 0.0 100215
14 августа, вс
вс1423:00+25всв11210 0.0 100411
02:00+23св11230 0.0 100411
05:00+22в11250 0.0 100411
08:00+28всв00170 0.0 1005219
11:00+35з21110 0.0 10031693
14:00+38з3390 0.0 10012944
17:00+37зсз6490 0.0 9992295
20:00+29з33160 0.0 100216
15 августа, пн
пн1523:00+25св11190 0.0 100311
02:00+24в01220 0.0 100311
05:00+22всв01230 0.0 100411
08:00+28юв00160 0.0 1005206
11:00+36з11110 0.0 10031820
14:00+38зсз2390 0.0 10013213
17:00+38зсз5490 0.0 10002572
20:00+29з22153 0.0 100212
16 августа, вт
вт1623:00+26в11184 0.0 100311
02:00+24всв01212 0.0 100411
05:00+23в11233 0.0 100511
08:00+29юв11160 0.0 1006275
11:00+36ю11110 0.0 10041994
14:00+38ююз2290 0.0 10023497
17:00+38юз4390 0.0 10003494
20:00+29юз11160 0.0 100312